Temperature
17 17 17 16 16 16 16 16 16 17 16 16 16 16 16 16 16 16 16 16 16 16 16 16 16 16 16 16 16 16 16 16 16 17 17 16 16 16 16 16 16 16 16
17 17 17 17 16 16 16 16 16 16 16 16 16 16 16 16 16 16 16 16 16 16 16 16 16 16 16 16 16 16 16 16 16 16 16 16 16 16 15 16 16 16 16
17 16 16 16 16 16 16 16 16 16 16 16 16 16 16 16 16 16 16 16 16 15 15 15 15 15 15 16 15 15 15 15 15 15 16 15 15 15 15 15 15 15 15
16 16 16 16 16 16 16 16 16 16 16 16 16 16 16 16 16 15 15 15 15 15 15 15 15 15 15 15 15 15 15 15 15 15 15 15 15 15 15 15 15 15 15
16 16 16 16 16 16 16 16 16 16 16 16 16 16 16 15 15 15 15 15 15 15 15 15 15 15 15 15 15 15 14 14 14 14 14 15 14 14 14 14 14 14 14
16 16 16 15 15 15 15 15 15 15 15 15 15 15 15 15 15 15 15 15 15 15 15 15 15 15 15 14 14 14 14 14 14 14 14 14 14 13 13 13 13 14 14
16 15 15 15 15 15 15 15 15 15 15 15 15 15 15 15 15 15 15 15 15 14 14 14 14 14 14 14 14 14 14 14 13 13 13 13 13 13 13 13 13 13 13
15 15 15 15 15 15 15 15 15 15 15 15 14 14 14 14 14 14 14 14 14 14 14 14 14 14 13 13 13 13 13 13 13 13 13 12 12 12 12 12 12 12 12
15 15 15 15 15 15 14 14 14 14 14 14 14 14 14 14 14 14 14 14 13 13 13 13 13 13 13 13 13 12 12 12 12 12 12 12 12 12 11 11 11 11 12
15 15 15 15 14 14 14 14 14 14 14 14 13 13 13 13 13 13 13 13 13 12 12 12 12 12 12 12 12 12 11 11 11 11 11 11 10 10 10 11 10 10 11
14 14 14 14 14 14 14 14 14 13 13 13 13 13 13 13 12 12 12 12 12 12 12 11 11 11 11 11 11 11 11 10 10 10 10 10 9 9 9 9 9 9 9
14 14 14 14 13 13 13 13 13 13 13 12 12 12 12 12 12 12 12 12 11 11 11 10 10 10 10 10 10 10 10 9 9 9 9 9 9 9 8 8 8 8 8
13 13 13 13 13 13 13 12 12 12 12 12 11 11 11 11 11 11 11 11 11 10 10 9 9 9 9 9 9 9 9 8 8 8 8 8 8 8 8 7 7 7 7
13 13 13 12 12 12 12 12 12 11 11 11 11 11 10 10 10 10 9 9 9 9 9 9 8 8 8 8 8 8 8 8 7 7 7 7 7 7 7 7 7 7 7
12 12 12 12 12 12 12 11 11 11 11 11 10 10 10 9 9 9 9 9 8 8 8 8 8 8 8 7 7 7 7 7 7 7 7 7 7 6 6 6 6 6 7
12 11 11 11 11 11 11 10 10 10 10 10 10 9 9 9 8 8 8 8 8 8 8 8 7 7 7 7 7 6 6 6 6 6 6 6 6 6 6 6 6 6 6
11 11 10 10 10 10 10 9 9 8 8 8 8 8 8 7 7 7 7 7 7 7 7 7 6 6 6 6 6 6 5 5 5 5 5 5 5 5 5 5 5 5 5
10 10 10 9 9 9 9 8 8 8 7 7 7 7 7 7 7 6 6 6 6 6 6 6 5 5 5 5 5 5 4 4 4 4 4 4 4 4 4 4 4 4 4
10 9 9 9 9 8 8 8 8 7 7 6 6 6 6 6 6 6 6 6 6 6 5 5 5 5 4 4 4 4 4 3 3 3 3 3 3 3 4 4 4 3 3
9 9 9 8 8 8 8 8 7 7 7 6 6 6 5 6 5 5 5 5 5 5 5 4 4 4 3 3 3 3 3 3 3 3 3 3 3 3 3 3 3 3 3
8 8 8 8 8 7 7 7 7 7 6 6 5 5 5 5 5 5 5 5 4 4 4 4 3 3 3 3 3 3 3 3 2 2 2 2 2 3 3 3 3 3 3
8 8 7 7 7 7 6 6 6 6 6 5 5 5 5 5 5 4 4 4 4 3 3 3 3 3 3 3 2 2 2 2 2 2 2 2 2 2 2 2 2 3 3
8 8 7 7 7 6 6 6 6 6 5 5 5 5 5 4 4 4 4 3 3 3 3 3 2 2 2 2 2 2 2 2 2 2 2 2 2 2 2 2 2 2 3
7 7 7 7 6 6 6 6 6 5 5 5 5 4 4 4 4 3 3 3 3 2 2 2 2 2 2 2 2 2 2 2 2 1 1 1 2 2 2 2 2 2 2
7 7 7 7 6 6 6 6 5 5 5 5 4 4 4 4 3 3 3 3 2 2 2 2 2 2 1 1 1 1 1 1 1 1 1 1 1 2 2 2 2 2 2
7 7 7 6 6 6 5 5 5 5 5 4 4 4 4 3 3 3 3 3 2 2 2 2 1 1 1 1 1 1 1 1 1 1 1 1 1 2 1 2 2 2 2
Wind_Speed
7 8 8 9 9 10 10 11 10 9 9 10 10 10 11 10 10 9 9 9 9 8 8 8 9 8 6 6 6 6 6 6 7 7 5 3 4 6 4 7 8 8 9
6 6 6 7 7 8 9 9 10 10 10 10 10 10 10 10 9 9 9 9 9 9 8 8 8 7 7 7 6 7 6 6 7 9 7 6 6 6 6 7 8 9 8
4 5 4 5 5 6 7 7 8 9 9 9 9 9 9 8 8 8 8 7 7 7 6 6 6 6 6 6 6 6 6 6 6 8 8 6 6 6 6 7 8 6 9
4 4 4 4 4 4 5 5 6 7 7 8 8 7 7 7 7 7 7 6 6 5 4 4 4 4 5 5 5 5 6 6 6 7 8 6 6 5 5 6 7 5 6
4 5 4 4 4 4 5 5 5 5 6 6 6 6 5 5 5 5 5 5 5 4 4 3 3 2 1 2 3 4 5 5 6 6 6 6 5 4 5 5 6 6 5
4 5 4 5 5 5 6 6 6 5 5 5 6 5 5 3 5 4 3 4 4 4 4 3 3 3 3 3 1 1 2 4 5 5 5 5 5 5 5 6 6 6 6
4 5 5 6 6 6 6 6 6 5 5 5 5 5 5 5 7 7 5 3 3 2 2 2 2 2 4 4 4 4 1 2 3 4 4 5 5 5 5 6 6 7 7
4 4 5 6 7 6 6 6 6 6 6 6 6 6 6 7 8 7 6 4 3 3 2 1 1 1 1 1 2 2 1 0 0 0 1 3 4 5 5 5 6 7 8
5 5 5 6 7 7 7 6 6 7 7 7 6 7 7 7 8 6 5 5 5 4 4 5 3 1 3 1 2 2 2 2 6 7 6 5 6 8 7 4 5 6 6
5 5 5 6 7 8 8 7 6 7 7 7 8 8 8 8 9 7 4 5 5 5 6 7 10 8 6 4 2 2 3 3 2 3 4 3 4 5 4 4 5 5 6
5 5 5 6 6 7 7 7 7 7 8 9 10 9 9 9 9 10 7 5 5 6 6 6 7 10 11 10 7 6 4 2 2 3 2 3 2 3 4 4 5 5 5
6 6 6 6 5 6 7 6 7 8 9 9 9 9 8 8 9 10 11 9 7 8 7 6 7 10 11 11 8 7 4 2 2 3 3 3 3 4 4 5 5 5 5
8 7 7 7 6 6 6 7 7 7 7 7 7 7 7 7 9 11 12 12 11 9 8 10 8 7 8 9 9 6 4 4 4 3 4 4 4 4 4 4 3 3 5
9 8 8 8 7 7 6 6 6 6 7 7 7 7 8 7 6 6 7 8 10 9 8 9 8 7 6 6 5 5 5 5 4 4 4 4 4 4 4 4 5 5 5
10 9 9 10 11 11 11 10 9 8 6 6 7 7 8 8 7 8 7 6 6 5 5 5 5 5 6 6 5 5 5 5 5 5 5 5 5 5 5 5 6 7 7
10 9 8 9 9 10 12 13 20 17 19 19 16 12 11 11 10 12 12 10 7 4 4 6 6 6 6 5 5 5 6 6 6 6 6 6 6 6 6 6 7 7 7
11 9 8 8 9 9 10 11 12 14 19 19 17 16 14 12 11 10 8 7 4 3 5 7 6 6 5 5 5 6 6 6 6 6 6 6 6 6 6 6 7 7 8
11 11 9 8 9 9 9 10 10 10 10 11 12 14 12 12 10 7 3 3 6 6 7 7 6 6 6 6 6 6 6 6 6 6 6 6 6 7 7 7 7 8 9
10 9 9 9 9 9 9 9 10 10 10 9 9 9 8 8 8 4 3 5 7 7 7 7 6 6 6 6 6 6 6 6 6 6 6 6 7 7 7 7 7 7 8
11 13 10 9 9 9 9 9 9 9 9 8 7 7 5 5 6 6 6 7 7 7 7 6 6 6 6 6 6 6 6 6 6 6 7 7 7 7 7 8 8 8 8
10 10 11 9 9 8 8 8 8 8 8 8 8 7 6 5 6 7 7 7 7 7 6 6 5 5 6 5 6 6 7 6 7 7 7 7 7 7 7 7 7 7 8
8 8 8 8 8 8 8 7 7 8 8 8 7 7 4 5 6 6 6 6 6 5 5 5 5 5 6 6 6 6 7 7 7 8 7 7 7 7 7 7 7 8 8
8 9 9 8 8 8 7 7 7 7 7 7 6 6 5 6 6 6 6 5 5 5 5 5 5 6 7 7 7 7 7 8 8 8 8 7 7 7 7 7 8 9 8
9 9 9 8 7 7 7 7 7 7 6 6 6 5 5 5 5 5 4 4 5 5 5 5 5 6 7 7 7 8 9 10 11 10 10 8 8 7 7 7 8 9 8
8 8 8 7 7 7 7 6 6 6 5 5 5 5 4 4 4 4 4 4 4 5 5 5 5 6 7 8 9 10 12 12 12 11 10 8 7 7 8 8 8 8 8
7 7 7 6 6 6 6 5 5 5 5 4 4 4 4 3 3 3 3 4 4 4 4 5 6 7 7 8 10 11 12 12 13 13 11 8 7 7 8 8 9 8 8
Wind_Direction
195 198 199 203 208 210 210 210 206 205 203 202 204 205 204 205 206 207 215 207 214 217 222 224 229 240 236 236 236 241 244 252 263 269 260 249 242 264 253 251 247 240 233
183 191 194 199 203 206 206 205 203 200 200 200 200 202 204 204 203 204 212 211 216 219 223 225 231 229 230 241 242 245 247 248 255 267 269 263 250 250 255 258 257 248 252
167 178 184 191 192 197 197 196 197 196 196 197 197 199 200 200 203 207 209 214 216 219 222 223 230 231 232 238 241 249 250 246 246 257 261 264 262 260 260 258 257 262 263
153 158 165 173 179 182 182 182 185 185 183 185 188 191 193 199 204 205 207 212 215 212 210 215 224 227 235 242 244 253 257 259 250 251 259 260 259 261 265 270 267 251 260
149 144 148 147 148 149 152 154 157 162 171 174 174 173 178 189 198 191 195 197 194 194 191 196 201 200 211 242 258 257 254 255 255 255 261 266 267 271 269 273 277 278 266
139 140 133 131 134 138 139 141 142 147 155 153 154 152 147 150 111 121 172 184 186 188 187 190 192 193 193 190 221 345 321 267 268 273 273 277 285 285 292 286 287 284 278
133 135 135 133 127 128 130 127 125 125 126 125 125 124 117 95 93 102 109 147 162 177 190 197 210 199 196 199 180 171 109 18 327 289 291 302 304 314 306 295 293 293 292
133 135 134 130 127 123 119 121 121 116 111 106 104 106 100 86 88 103 112 120 110 96 89 122 190 258 232 196 196 177 168 96 313 283 318 330 345 345 326 304 301 288 275
129 133 135 135 133 131 126 121 120 117 112 107 104 99 96 83 78 93 115 115 99 82 64 48 43 64 42 39 151 148 137 112 91 88 78 65 51 33 1 324 313 301 298
123 127 130 133 133 132 130 128 123 121 118 112 100 93 90 84 68 72 102 112 105 95 78 62 54 52 43 40 99 111 102 81 72 93 90 75 51 48 36 4 335 314 311
112 112 115 123 129 132 130 127 125 121 113 105 99 91 84 78 72 61 62 95 104 98 85 72 61 58 58 54 61 75 67 37 61 61 52 47 35 19 16 10 353 332 320
102 102 104 109 116 121 121 122 123 120 114 110 105 96 84 77 71 69 65 67 79 93 88 83 77 73 71 64 64 53 32 11 57 53 43 31 20 12 7 357 354 341 323
99 97 97 98 101 107 115 123 121 117 116 114 111 105 96 87 81 78 77 75 75 86 86 84 83 91 97 81 68 49 40 46 45 40 30 22 11 4 343 337 333 321 294
98 98 98 98 93 84 80 87 98 103 110 112 108 104 98 86 78 85 95 96 101 99 100 106 103 83 83 82 81 59 50 41 26 25 16 8 358 350 346 344 333 326 316
98 96 94 93 94 85 74 60 69 60 63 91 100 100 99 90 61 49 68 76 77 84 95 93 84 79 70 64 60 52 42 38 30 21 10 3 357 353 350 347 337 325 322
101 99 99 100 100 100 97 82 61 65 61 60 59 76 80 82 82 73 71 68 59 36 68 80 71 63 56 51 45 46 41 31 20 13 8 0 353 347 340 339 335 331 328
98 98 99 100 104 105 105 103 97 78 68 64 64 70 81 83 79 78 80 79 54 19 73 70 63 56 50 45 37 33 30 26 11 6 2 357 350 342 340 340 339 335 330
98 96 99 98 98 98 99 102 103 104 98 85 73 74 81 82 77 70 75 103 79 68 67 66 61 54 46 37 32 26 19 15 10 3 1 355 350 343 341 338 338 340 329
98 97 93 93 93 94 97 97 96 96 97 98 99 92 92 102 98 63 23 69 72 69 67 63 56 50 44 37 29 20 16 14 8 355 360 354 348 341 341 337 334 333 319
93 90 92 96 95 94 94 95 96 98 98 96 93 92 107 109 89 80 69 65 67 65 62 59 53 45 39 30 23 15 12 11 4 359 359 351 346 341 337 332 332 330 328
104 103 104 100 97 96 96 96 96 97 97 95 87 66 21 79 79 74 68 65 62 60 55 52 49 42 37 26 18 13 8 6 1 355 350 344 340 337 332 331 330 328 326
105 106 103 101 102 100 101 103 103 102 102 101 101 97 61 71 75 74 72 69 64 57 50 41 39 39 31 22 15 7 4 2 358 350 343 337 333 330 330 332 333 330 329
107 108 106 105 106 111 111 105 104 103 102 101 100 95 86 76 75 72 69 63 60 55 48 40 37 37 30 19 13 9 6 360 349 340 333 329 329 330 331 332 328 326 331
107 109 110 111 113 112 107 106 103 101 100 98 95 91 87 80 74 71 66 63 57 52 46 43 38 35 26 15 9 15 13 355 339 332 330 324 324 329 329 328 326 330 330
109 111 112 114 113 110 108 106 103 100 98 96 94 92 88 84 80 75 66 60 55 51 42 36 30 27 21 18 15 13 6 356 345 334 323 319 324 326 327 326 328 329 332
107 108 108 109 108 108 108 106 103 99 95 93 90 88 87 86 80 74 67 56 52 50 38 36 28 24 17 18 18 10 3 354 343 332 318 317 325 331 333 327 330 333 337
Height
1501 1503 1505 1507 1510 1513 1516 1519 1522 1525 1528 1531 1534 1537 1540 1542 1545 1547 1549 1551 1553 1554 1556 1558 1559 1560 1562 1563 1564 1565 1565 1566 1566 1566 1566 1566 1565 1565 1566 1565 1565 1565 1565
1500 1502 1504 1506 1508 1510 1512 1515 1519 1522 1524 1527 1530 1533 1536 1539 1541 1543 1545 1548 1549 1551 1553 1554 1556 1557 1558 1559 1560 1561 1561 1562 1562 1562 1562 1563 1562 1561 1561 1561 1562 1562 1562
1500 1501 1502 1504 1505 1507 1509 1512 1515 1518 1521 1524 1527 1530 1533 1535 1537 1539 1542 1544 1546 1547 1549 1550 1552 1553 1554 1555 1556 1557 1557 1558 1558 1558 1558 1558 1558 1558 1557 1557 1557 1556 1557
1500 1501 1501 1502 1503 1505 1507 1510 1513 1516 1518 1521 1524 1527 1529 1531 1534 1536 1538 1540 1542 1544 1545 1546 1548 1549 1550 1551 1552 1552 1553 1553 1554 1554 1554 1554 1554 1554 1554 1554 1554 1553 1552
1500 1501 1501 1502 1503 1505 1507 1509 1512 1514 1517 1519 1521 1524 1526 1528 1530 1532 1534 1537 1538 1540 1541 1543 1544 1545 1547 1548 1549 1549 1550 1550 1550 1550 1550 1551 1551 1550 1550 1550 1550 1549 1548
1500 1501 1502 1502 1504 1505 1507 1509 1511 1514 1516 1518 1520 1522 1524 1526 1528 1529 1531 1533 1535 1536 1538 1539 1541 1542 1543 1544 1545 1546 1547 1547 1547 1547 1547 1547 1547 1547 1546 1546 1546 1545 1545
1500 1501 1502 1503 1505 1506 1508 1510 1511 1513 1515 1517 1519 1521 1523 1525 1526 1527 1529 1530 1532 1533 1535 1536 1538 1539 1540 1541 1541 1542 1543 1543 1544 1544 1544 1544 1544 1543 1543 1542 1541 1541 1540
1501 1501 1502 1504 1505 1507 1508 1510 1512 1514 1515 1517 1519 1520 1522 1524 1525 1526 1528 1529 1530 1531 1532 1533 1535 1536 1536 1537 1538 1539 1539 1539 1540 1540 1540 1540 1540 1539 1539 1539 1538 1537 1535
1501 1502 1503 1505 1506 1508 1509 1510 1512 1514 1515 1517 1519 1521 1522 1523 1525 1526 1527 1528 1528 1529 1531 1531 1532 1533 1534 1534 1535 1536 1536 1536 1537 1537 1537 1537 1536 1536 1535 1535 1534 1534 1533
1501 1502 1504 1505 1507 1508 1510 1511 1513 1514 1516 1518 1519 1521 1523 1524 1525 1526 1527 1528 1528 1529 1530 1530 1530 1531 1531 1532 1533 1533 1533 1534 1534 1534 1534 1534 1533 1533 1532 1531 1531 1531 1530
1501 1503 1504 1506 1507 1509 1511 1512 1514 1515 1517 1518 1520 1521 1523 1524 1525 1526 1527 1528 1528 1529 1529 1529 1530 1530 1530 1530 1531 1531 1531 1531 1532 1533 1532 1532 1531 1531 1530 1528 1527 1527 1526
1501 1503 1505 1506 1508 1510 1511 1513 1514 1516 1517 1519 1520 1521 1523 1524 1525 1526 1527 1528 1528 1529 1529 1529 1530 1530 1530 1530 1530 1530 1530 1531 1532 1532 1532 1531 1530 1529 1528 1526 1525 1524 1522
1502 1503 1505 1507 1508 1510 1512 1513 1515 1516 1518 1520 1521 1522 1523 1524 1526 1527 1528 1528 1528 1528 1529 1529 1530 1531 1531 1531 1530 1530 1531 1531 1531 1531 1531 1530 1529 1527 1526 1525 1523 1522 1520
1503 1504 1506 1507 1509 1510 1512 1514 1516 1518 1519 1521 1522 1523 1524 1525 1527 1528 1529 1529 1529 1529 1530 1530 1531 1532 1532 1531 1531 1531 1531 1530 1530 1531 1530 1529 1528 1527 1526 1524 1523 1521 1520
1504 1506 1507 1509 1510 1511 1513 1514 1516 1518 1520 1521 1522 1524 1525 1526 1527 1529 1529 1530 1531 1531 1531 1532 1533 1533 1533 1533 1533 1532 1532 1531 1531 1530 1530 1528 1527 1526 1525 1523 1521 1520 1518
1506 1508 1510 1511 1512 1513 1514 1516 1518 1520 1521 1522 1523 1524 1525 1527 1528 1530 1530 1531 1531 1532 1533 1534 1534 1534 1534 1534 1534 1533 1532 1531 1530 1530 1529 1528 1526 1525 1523 1522 1520 1518 1516
1509 1510 1512 1514 1515 1516 1517 1518 1519 1522 1524 1525 1526 1527 1528 1529 1530 1531 1532 1532 1533 1534 1535 1535 1535 1535 1535 1535 1534 1534 1532 1531 1529 1529 1528 1527 1525 1524 1522 1520 1518 1516 1514
1512 1513 1515 1516 1518 1519 1520 1522 1523 1525 1526 1528 1530 1530 1531 1532 1533 1533 1534 1535 1536 1536 1536 1536 1536 1536 1536 1535 1534 1534 1532 1531 1529 1528 1527 1525 1524 1522 1521 1519 1517 1515 1512
1515 1517 1519 1520 1521 1523 1524 1526 1527 1529 1531 1532 1533 1534 1535 1536 1536 1536 1537 1538 1538 1538 1538 1538 1538 1537 1537 1536 1534 1533 1532 1531 1529 1528 1526 1524 1523 1521 1519 1517 1515 1513 1511
1519 1520 1522 1524 1525 1527 1528 1530 1531 1533 1534 1536 1537 1538 1539 1540 1540 1540 1540 1540 1540 1540 1539 1539 1538 1538 1537 1536 1535 1534 1532 1531 1529 1527 1525 1523 1522 1520 1518 1516 1514 1512 1509
1523 1525 1526 1528 1529 1531 1532 1533 1535 1536 1538 1539 1540 1540 1541 1542 1542 1542 1542 1541 1541 1541 1540 1540 1539 1539 1537 1536 1535 1533 1532 1530 1528 1526 1524 1522 1520 1518 1516 1514 1512 1510 1508
1528 1529 1530 1532 1533 1534 1535 1537 1538 1539 1540 1541 1542 1543 1543 1544 1544 1544 1543 1543 1543 1542 1542 1541 1541 1539 1538 1536 1535 1533 1532 1530 1528 1525 1523 1521 1519 1517 1515 1513 1511 1509 1507
1531 1532 1534 1535 1536 1537 1539 1540 1541 1542 1543 1544 1545 1545 1546 1546 1546 1545 1545 1544 1544 1543 1542 1542 1541 1539 1538 1536 1535 1533 1531 1529 1526 1524 1522 1520 1518 1517 1515 1512 1510 1508 1505
1535 1536 1537 1538 1539 1541 1542 1543 1544 1545 1546 1546 1546 1547 1547 1546 1546 1546 1546 1545 1545 1544 1543 1542 1541 1539 1538 1536 1535 1533 1530 1527 1525 1523 1521 1519 1518 1516 1514 1512 1509 1507 1505
1538 1539 1540 1541 1542 1543 1544 1545 1546 1546 1547 1547 1547 1547 1547 1547 1547 1547 1547 1546 1545 1544 1543 1542 1541 1539 1538 1536 1534 1531 1529 1526 1524 1522 1520 1519 1517 1515 1513 1511 1509 1506 1504
1540 1541 1542 1543 1544 1545 1546 1546 1547 1548 1548 1548 1548 1548 1548 1548 1548 1548 1547 1546 1545 1544 1543 1542 1541 1539 1537 1536 1533 1531 1528 1526 1523 1521 1519 1518 1517 1515 1512 1510 1508 1506 1503